Location: Palau
(42.3086°N, 3.1507°E)
Time: 21:31:48
(UTC+00:00)

Resurs 1-4 Rocket - Pass Details

Date: 26 May 2020
Orbit: 800 x 813 km, 98.6° (Epoch: 04 July)

Event Time Altitude Azimuth Distance (km) Brightness Sun altitude
Rises 03:11:37 0° 354° (N) 3,328 5.8 -10.6°
Reaches altitude 10° 03:15:23 10° 327° (NNW) 2,394 4.7 -10.0°
Maximum altitude 03:17:31 13° 303° (WNW) 2,217 4.2 -9.7°
Drops below altitude 10° 03:19:39 10° 278° (W) 2,392 4.2 -9.4°
Enters shadow 03:21:18 - 264° (W) 2,732 4.4 -9.2°
